This is the latest recevied weather packets stored in our database for station/object K3SV. If no packets are shown the sender has not sent any weather packets the latest 10 day(s).
| Time | Temp. | Humidity | Pressure | Rain* | Wind** | Luminosity | Snow |
|---|---|---|---|---|---|---|---|
| 1778186101 | 33.33° C | 30% | 1013.9 hPa | 0 mm | - | 507 W/m² | - |
| 1778185797 | 33.33° C | 30% | 1013.7 hPa | 0 mm | - | 517 W/m² | - |
| 1778185493 | 35° C | 28% | 1014 hPa | 0 mm | - | 529 W/m² | - |
| 1778185190 | 34.44° C | 28% | 1014 hPa | 0 mm | - | 541 W/m² | - |
| 1778184890 | 34.44° C | 28% | 1013.9 hPa | 0 mm | - | 555 W/m² | - |
| 1778184587 | 33.89° C | 28% | 1014.1 hPa | 0 mm | - | 566 W/m² | - |
| 1778184282 | 34.44° C | 28% | 1014.1 hPa | 0 mm | - | 578 W/m² | - |
| 1778183978 | 33.89° C | 27% | 1014.1 hPa | 0 mm | - | 587 W/m² | - |
| 1778183676 | 33.89° C | 31% | 1014.1 hPa | 0 mm | - | 601 W/m² | - |
| 1778183373 | 33.89° C | 32% | 1014 hPa | 0 mm | - | 610 W/m² | - |
| 1778183070 | 34.44° C | 33% | 1014.2 hPa | 0 mm | - | 620 W/m² | - |
| 1778182765 | 33.89° C | 35% | 1014.1 hPa | 0 mm | - | 627 W/m² | - |
| 1778182463 | 33.33° C | 37% | 1014.3 hPa | 0 mm | - | 640 W/m² | - |
| 1778182160 | 34.44° C | 38% | 1014.4 hPa | 0 mm | - | 647 W/m² | - |
| 1778181855 | 34.44° C | 37% | 1014.4 hPa | 0 mm | - | 658 W/m² | - |
| 1778181553 | 33.89° C | 37% | 1014.5 hPa | 0 mm | - | 666 W/m² | - |
| 1778181249 | 33.33° C | 38% | 1014.5 hPa | 0 mm | - | 674 W/m² | - |
| 1778180945 | 33.89° C | 38% | 1014.6 hPa | 0 mm | - | 682 W/m² | - |
| 1778180643 | 33.89° C | 35% | 1014.5 hPa | 0 mm | - | 690 W/m² | - |
| 1778180342 | 33.89° C | 35% | 1014.7 hPa | 0 mm | - | 696 W/m² | - |
| 1778180039 | 32.78° C | 39% | 1014.6 hPa | 0 mm | - | 703 W/m² | - |
| 1778179736 | 33.33° C | 38% | 1014.7 hPa | 0 mm | - | 708 W/m² | - |
| 1778179434 | 32.78° C | 38% | 1014.7 hPa | 0 mm | - | 717 W/m² | - |
| 1778179130 | 33.33° C | 37% | 1014.9 hPa | 0 mm | - | 721 W/m² | - |
| 1778178828 | 33.33° C | 37% | 1015 hPa | 0 mm | - | 726 W/m² | - |
* Rain latest hour (hover to see other rain measurements)
** Current wind speed in m/s (hover to see current wind gust speed)